Highgate, VT

10:17 AM EDT on March 24, 2017 (GMT -0400)
Franklin County State

Weather History for KFSO - February, 2014

Change the Weather History Date:

Tuesday, February 25, 2014

  Actual Average (KPBG) Record (KPBG)
Temperature  
Mean Temperature 16 °F -  
Max Temperature 22 °F 29 °F 65 °F (2017)
Min Temperature 10 °F 12 °F -9 °F (1993)
Degree Days  
Heating Degree Days 49    
Moisture  
Dew Point 6 °F    
Average Humidity 66    
Maximum Humidity 81    
Minimum Humidity 50    
Precipitation  
Precipitation 0.00 in - - ()
Sea Level Pressure  
Sea Level Pressure 29.93 in    
Wind  
Wind Speed 4 mph (WNW)    
Max Wind Speed 9 mph    
Max Gust Speed 17 mph    
Visibility 9 miles    
Events Snow    
Averages and records for this station are not official NWS values.
T = Trace of Precipitation, MM = Missing Value Source: NWS Daily Summary

Daily Weather History Graph

Daily Weather History Graph

Search for Another Location

Airport or City:

Trip Planner

Search our weather history database for the weather conditions in past years. The results will help you decide how hot, cold, wet, or windy it might be!

Date:

Astronomy

Feb. 25, 2014 Rise Set
Actual Time 6:37 AM EST 5:34 PM EST
Civil Twilight 6:07 AM EST 6:04 PM EST
Nautical Twilight 5:33 AM EST 6:38 PM EST
Astronomical Twilight 4:59 AM EST 7:12 PM EST
Moon 3:37 AM EST (2/25) 1:30 PM EST (2/25)
Length of Visible Light 11h 56m
Length of Day
10h 57m
Waning Crescent, 18% of the Moon is Illuminated
Feb 25
Waning Crescent
Mar 1
New
Mar 8
First Quarter
Mar 16
Full
Mar 23
Last Quarter

Hourly Weather History & Observations

Time (EST) Temp. Windchill Dew Point Humidity Pressure Visibility Wind Dir Wind Speed Gust Speed Precip Events Conditions
12:15 AM 18.3 °F 9.1 °F 8.6 °F 66% 29.95 in 7.0 mi WNW 6.9 mph - N/A   Overcast
12:35 AM 18.3 °F 7.3 °F 7.5 °F 63% 29.95 in 10.0 mi WNW 9.2 mph 17.3 mph N/A   Mostly Cloudy
12:55 AM 17.6 °F 8.2 °F 4.8 °F 57% 29.96 in 10.0 mi WNW 6.9 mph - N/A   Overcast
1:15 AM 16.5 °F 9.4 °F 3.9 °F 58% 29.97 in 10.0 mi WNW 4.6 mph - N/A   Overcast
1:40 AM 15.8 °F 10.2 °F 2.8 °F 57% 29.97 in 10.0 mi WNW 3.5 mph - N/A   Overcast
1:55 AM 15.8 °F 8.6 °F 3.2 °F 58% 29.97 in 10.0 mi WNW 4.6 mph - N/A   Mostly Cloudy
2:15 AM 15.8 °F 10.2 °F 3.2 °F 58% 29.96 in 10.0 mi West 3.5 mph - N/A   Scattered Clouds
2:35 AM 15.8 °F 10.2 °F 3.2 °F 58% 29.97 in 10.0 mi WNW 3.5 mph - N/A   Scattered Clouds
2:55 AM 15.8 °F 10.2 °F 3.7 °F 59% 29.97 in 10.0 mi West 3.5 mph - N/A   Mostly Cloudy
3:15 AM 14.7 °F 9.0 °F 3.4 °F 61% 29.97 in 10.0 mi West 3.5 mph - N/A   Overcast
4:55 AM 12.0 °F 5.9 °F 2.8 °F 67% 29.97 in 10.0 mi WSW 3.5 mph - N/A   Mostly Cloudy
5:15 AM 13.1 °F - 3.9 °F 67% 29.97 in 10.0 mi Calm Calm - N/A   Overcast
5:35 AM 13.1 °F - 4.1 °F 67% 29.97 in 10.0 mi Calm Calm - N/A   Overcast
5:55 AM 13.1 °F - 4.1 °F 67% 29.97 in 10.0 mi Calm Calm - N/A   Overcast
6:15 AM 13.1 °F - 4.1 °F 67% 29.97 in 10.0 mi Calm Calm - N/A   Overcast
6:35 AM 13.1 °F - 4.5 °F 68% 29.97 in 10.0 mi Calm Calm - N/A   Overcast
6:55 AM 13.1 °F - 4.8 °F 70% 29.97 in 10.0 mi Calm Calm - N/A   Overcast
7:15 AM 13.1 °F - 4.8 °F 70% 29.97 in 10.0 mi Calm Calm - N/A   Overcast
7:35 AM 13.5 °F - 5.0 °F 69% 29.97 in 10.0 mi Calm Calm - N/A   Overcast
7:55 AM 15.6 °F 10.0 °F 7.2 °F 69% 29.97 in 10.0 mi WNW 3.5 mph - N/A   Overcast
8:15 AM 15.8 °F 10.2 °F 7.3 °F 69% 29.97 in 4.0 mi WNW 3.5 mph - N/A   Haze
8:35 AM 15.8 °F 8.6 °F 6.8 °F 68% 29.96 in 4.0 mi WNW 4.6 mph - N/A   Haze
8:55 AM 15.8 °F 7.2 °F 5.9 °F 65% 29.95 in 10.0 mi WNW 5.8 mph - N/A   Mostly Cloudy
9:15 AM 15.8 °F 7.2 °F 5.2 °F 63% 29.95 in 10.0 mi West 5.8 mph - N/A   Overcast
9:35 AM 16.9 °F 8.5 °F 5.7 °F 62% 29.95 in 7.0 mi West 5.8 mph - N/A   Overcast
9:55 AM 18.3 °F 10.2 °F 5.7 °F 58% 29.95 in 10.0 mi West 5.8 mph - N/A   Overcast
10:15 AM 18.3 °F 11.5 °F 5.0 °F 56% 29.95 in 10.0 mi West 4.6 mph - N/A   Overcast
10:35 AM 19.6 °F 10.6 °F 4.8 °F 53% 29.95 in 10.0 mi West 6.9 mph - N/A   Overcast
10:55 AM 19.6 °F 13.0 °F 5.9 °F 55% 29.95 in 7.0 mi WSW 4.6 mph - N/A   Overcast
11:15 AM 20.8 °F 12.1 °F 6.8 °F 55% 29.94 in 5.0 mi WSW 6.9 mph - N/A   Haze
11:35 AM 20.8 °F 12.1 °F 6.1 °F 53% 29.93 in 10.0 mi West 6.9 mph - N/A   Overcast
11:50 AM 20.8 °F 10.4 °F 5.7 °F 52% 29.93 in 10.0 mi West 9.2 mph - N/A   Overcast
12:20 PM 20.8 °F 11.2 °F 4.8 °F 50% 29.92 in 10.0 mi WNW 8.1 mph - N/A   Mostly Cloudy
12:35 PM 21.2 °F 13.6 °F 5.2 °F 50% 29.91 in 10.0 mi WNW 5.8 mph - N/A   Mostly Cloudy
12:55 PM 21.0 °F 11.4 °F 5.9 °F 52% 29.90 in 10.0 mi West 8.1 mph - N/A   Mostly Cloudy
1:15 PM 20.8 °F 10.4 °F 5.7 °F 52% 29.90 in 7.0 mi West 9.2 mph - N/A   Overcast
1:35 PM 21.2 °F 13.6 °F 5.9 °F 52% 29.90 in 10.0 mi WNW 5.8 mph - N/A   Overcast
1:55 PM 21.6 °F 13.0 °F 7.7 °F 55% 29.90 in 10.0 mi NW 6.9 mph - N/A   Mostly Cloudy
2:15 PM 21.0 °F 14.6 °F 9.3 °F 61% 29.89 in 10.0 mi WNW 4.6 mph - N/A   Mostly Cloudy
2:35 PM 22.1 °F 14.7 °F 7.2 °F 53% 29.89 in 10.0 mi NW 5.8 mph - N/A   Mostly Cloudy
2:55 PM 20.8 °F 12.1 °F 10.4 °F 64% 29.89 in 2.5 mi NNW 6.9 mph - N/A Snow Light Snow
3:15 PM 20.8 °F 14.4 °F 11.8 °F 68% 29.89 in 4.0 mi WNW 4.6 mph - N/A Snow Light Snow
3:35 PM 21.0 °F 12.4 °F 11.3 °F 66% 29.89 in 4.0 mi NW 6.9 mph - N/A Snow Light Snow
3:55 PM 20.8 °F 12.1 °F 11.3 °F 67% 29.89 in 2.0 mi NNW 6.9 mph - N/A Snow Light Snow
4:15 PM 19.2 °F 12.5 °F 11.3 °F 71% 29.89 in 2.5 mi North 4.6 mph - N/A Snow Light Snow
4:35 PM 18.3 °F 11.5 °F 10.4 °F 71% 29.89 in 4.0 mi NNW 4.6 mph - N/A   Haze
4:55 PM 18.3 °F 13.1 °F 10.6 °F 72% 29.90 in 5.0 mi NW 3.5 mph - N/A   Haze
5:15 PM 18.3 °F - 10.0 °F 70% 29.90 in 10.0 mi Calm Calm - N/A   Mostly Cloudy
5:35 PM 16.5 °F - 8.8 °F 72% 29.91 in 10.0 mi Calm Calm - N/A   Scattered Clouds
5:55 PM 15.8 °F - 8.2 °F 72% 29.91 in 10.0 mi Calm Calm - N/A   Clear
6:15 PM 15.8 °F - 8.4 °F 73% 29.92 in 10.0 mi Calm Calm - N/A   Scattered Clouds
6:35 PM 15.8 °F - 8.6 °F 73% 29.92 in 10.0 mi Calm Calm - N/A   Scattered Clouds
6:55 PM 15.8 °F - 8.4 °F 73% 29.92 in 10.0 mi Calm Calm - N/A   Clear
7:15 PM 13.1 °F - 6.3 °F 74% 29.92 in 10.0 mi Calm Calm - N/A   Scattered Clouds
7:35 PM 13.1 °F - 6.8 °F 76% 29.92 in 10.0 mi Calm Calm - N/A   Mostly Cloudy
7:55 PM 12.7 °F - 6.3 °F 75% 29.92 in 10.0 mi Calm Calm - N/A   Scattered Clouds
8:15 PM 10.8 °F - 4.6 °F 76% 29.92 in 10.0 mi Calm Calm - N/A   Scattered Clouds
8:35 PM 10.8 °F - 5.7 °F 80% 29.92 in 10.0 mi Calm Calm - N/A   Clear
8:55 PM 10.8 °F - 5.9 °F 81% 29.92 in 10.0 mi Calm Calm - N/A   Scattered Clouds
9:15 PM 10.8 °F - 5.9 °F 81% 29.92 in 10.0 mi Calm Calm - N/A   Overcast
9:35 PM 12.9 °F - 7.5 °F 79% 29.91 in 10.0 mi Calm Calm - N/A   Overcast
9:55 PM 12.9 °F - 6.4 °F 75% 29.91 in 10.0 mi Calm Calm - N/A   Overcast
10:15 PM 13.1 °F - 6.8 °F 76% 29.91 in 10.0 mi Calm Calm - N/A Snow Light Snow
10:35 PM 15.8 °F - 9.0 °F 74% 29.91 in 10.0 mi Calm Calm - N/A   Overcast
10:55 PM 13.5 °F 7.5 °F 6.8 °F 75% 29.90 in 10.0 mi South 3.5 mph - N/A   Overcast
11:15 PM 13.1 °F - 6.8 °F 76% 29.90 in 10.0 mi Calm Calm - N/A   Overcast
11:35 PM 11.3 °F 5.1 °F 5.5 °F 78% 29.89 in 10.0 mi SE 3.5 mph - N/A   Overcast
11:55 PM 11.5 °F 3.5 °F 5.9 °F 78% 29.88 in 10.0 mi SE 4.6 mph - N/A   Scattered Clouds